sat.trackr.live / text

‹ back to catalog

STARLINK-34260

NORAD 64334 · 2025-124T

PAYLOAD ACTIVE UNKNOWN

§ Identity

Operator
Country
US
Launch date
2025-06-10
Launch site
AFETR
Launch vehicle
Mass (kg)
RCS (m²)

Purposes: comms

External: N2YO · Heavens-Above · Gunter

§ Orbital elements

Epoch: 2026-05-25T03:56:58.720128Z

Period
94.27 min
Inclination
43.0018°
Eccentricity
0.0001214
Mean motion
15.27598116 rev/d
Perigee alt
482.2 km
Apogee alt
483.8 km
Semi-major
6,861.1 km
B*
9.3019e-4
RAAN
50.0457°
Arg perigee
272.3407°
Mean anomaly
87.7306°
Rev number
5,347

§ Raw data

STARLINK-342601 64334U 25124T   26145.16456852  .00025437  00000+0  93019-3 0  99942 64334  43.0018  50.0457 0001214 272.3407  87.7306 15.27598116 53477

JSON: /api/v1/satellites/64334 · /tle

For live sub-satellite position, see the globe view (requires WebGL).

§ Visibility from observer

Set your observer location to see the next 7 days of passes ≥ 10°. The values pass through the URL so the page stays shareable.

No JS? Fill the form by hand. The geolocation button needs JavaScript.